Millinocket, ME

1:38 PM EDT on September 27, 2016 (GMT -0400)
Millinocket Municipal

Weather History for KMLT - June, 2013

Change the Weather History Date:

Monday, June 24, 2013

  Actual Average Record
Temperature  
Mean Temperature 74 °F 66 °F  
Max Temperature 84 °F 76 °F 97 °F (1912)
Min Temperature 64 °F 55 °F 39 °F (1931)
Degree Days  
Heating Degree Days 0 2  
Month to date heating degree days 87 107  
Since 1 June heating degree days 87 107  
Since 1 July heating degree days 7689 8397  
Cooling Degree Days 9 2  
Month to date cooling degree days 37 33  
Year to date cooling degree days 45 39  
Since 1 June cooling degree days 37 33  
Growing Degree Days 23 (Base 50)    
Moisture  
Dew Point 66 °F    
Average Humidity 74    
Maximum Humidity 93    
Minimum Humidity 55    
Precipitation  
Precipitation 0.30 in 0.12 in 1.41 in (2012)
Month to date precipitation 3.83 3.24  
Year to date precipitation 14.99 18.31  
Sea Level Pressure  
Sea Level Pressure 29.88 in    
Wind  
Wind Speed 3 mph (West)    
Max Wind Speed 13 mph    
Max Gust Speed 20 mph    
Visibility 5 miles    
Events Fog , Rain , Thunderstorm    
T = Trace of Precipitation, MM = Missing Value Source: NWS Daily Summary

Daily Weather History Graph

Daily Weather History Graph

Search for Another Location

Airport or City:

Trip Planner

Search our weather history database for the weather conditions in past years. The results will help you decide how hot, cold, wet, or windy it might be!

Date:

Astronomy

Jun. 24, 2013 Rise Set
Actual Time 4:46 AM EDT 8:28 PM EDT
Civil Twilight 4:08 AM EDT 9:06 PM EDT
Nautical Twilight 3:16 AM EDT 9:57 PM EDT
Astronomical Twilight 2:06 AM EDT 11:07 PM EDT
Moon 9:20 PM EDT (6/24) 6:15 AM EDT (6/24)
Length of Visible Light 16h 58m
Length of Day
15h 41m
Full, 98% of the Moon is Illuminated
Jun 24
Full
Jun 30
Last Quarter
Jul 8
New
Jul 15
First Quarter
Jul 22
Full

Hourly Weather History & Observations

Time (EDT) Temp. Heat Index Dew Point Humidity Pressure Visibility Wind Dir Wind Speed Gust Speed Precip Events Conditions
12:01 AM 68.0 °F - 64.4 °F 88% 29.92 in 5.0 mi Calm Calm - N/A   Mostly Cloudy
12:53 AM 69.1 °F - 66.0 °F 90% 29.92 in 4.0 mi Calm Calm - N/A   Mostly Cloudy
1:28 AM 68.0 °F - 66.2 °F 94% 29.90 in 3.0 mi Calm Calm - N/A   Overcast
1:53 AM 69.1 °F - 66.0 °F 90% 29.92 in 4.0 mi Calm Calm - N/A   Mostly Cloudy
2:01 AM 68.0 °F - 66.2 °F 94% 29.90 in 3.0 mi Calm Calm - N/A   Scattered Clouds
2:11 AM 68.0 °F - 66.2 °F 94% 29.90 in 2.5 mi Calm Calm - N/A   Clear
2:23 AM 66.2 °F - 64.4 °F 94% 29.90 in 1.8 mi Calm Calm - N/A   Clear
2:37 AM 66.2 °F - 64.4 °F 94% 29.90 in 0.8 mi Calm Calm - N/A   Mist
2:47 AM 66.2 °F - 64.4 °F 94% 29.90 in 1.5 mi Calm Calm - N/A   Mostly Cloudy
2:50 AM 66.2 °F - 64.4 °F 94% 29.90 in 3.0 mi Calm Calm - N/A   Mostly Cloudy
2:53 AM 66.0 °F - 64.9 °F 96% 29.91 in 3.0 mi Calm Calm - N/A   Mostly Cloudy
2:59 AM 66.2 °F - 64.4 °F 94% 29.90 in 1.8 mi Calm Calm - N/A   Mostly Cloudy
3:08 AM 64.4 °F - 64.4 °F 100% 29.90 in 1.2 mi Calm Calm - N/A   Overcast
3:12 AM 64.4 °F - 64.4 °F 100% 29.90 in 2.0 mi Calm Calm - N/A   Overcast
3:22 AM 66.2 °F - 64.4 °F 94% 29.90 in 3.0 mi Calm Calm - N/A   Mostly Cloudy
3:39 AM 64.4 °F - 64.4 °F 100% 29.91 in 3.0 mi Calm Calm - N/A   Scattered Clouds
3:53 AM 66.0 °F - 64.0 °F 93% 29.92 in 3.0 mi Calm Calm - N/A   Partly Cloudy
4:07 AM 64.4 °F - 64.4 °F 100% 29.91 in 2.5 mi Calm Calm - N/A   Partly Cloudy
4:53 AM 64.0 °F - 63.0 °F 96% 29.91 in 2.0 mi Calm Calm - N/A   Clear
5:10 AM 64.4 °F - 62.6 °F 94% 29.90 in 1.8 mi Calm Calm - N/A   Scattered Clouds
5:26 AM 66.2 °F - 64.4 °F 94% 29.90 in 2.5 mi WSW 3.5 mph - N/A   Scattered Clouds
5:34 AM 66.2 °F - 64.4 °F 94% 29.90 in 4.0 mi Calm Calm - N/A   Partly Cloudy
5:53 AM 66.9 °F - 64.9 °F 93% 29.91 in 4.0 mi Calm Calm - N/A   Clear
6:29 AM 66.2 °F - 66.2 °F 100% 29.90 in 2.5 mi Calm Calm - 0.01 in Rain Light Rain
6:42 AM 66.2 °F - 66.2 °F 100% 29.89 in 1.5 mi East 3.5 mph - 0.04 in Rain Rain
6:53 AM 66.9 °F - 64.9 °F 93% 29.91 in 1.8 mi Calm Calm - 0.04 in Rain Light Rain
7:01 AM 66.2 °F - 64.4 °F 94% 29.89 in 2.0 mi Calm Calm - 0.01 in Rain Light Rain
7:24 AM 66.2 °F - 66.2 °F 100% 29.89 in 1.2 mi Calm Calm - 0.04 in Rain Heavy Rain
7:53 AM 68.0 °F - 66.0 °F 93% 29.91 in 1.0 mi Calm Calm - 0.12 in Rain Light Rain
8:03 AM 66.2 °F - 66.2 °F 100% 29.90 in 0.5 mi Calm Calm - 0.07 in Fog , Rain Heavy Rain
8:17 AM 68.0 °F - 66.2 °F 94% 29.89 in 1.0 mi Calm Calm - 0.10 in Rain Light Rain
8:32 AM 68.0 °F - 66.2 °F 94% 29.90 in 1.8 mi Calm Calm - 0.11 in Rain Light Rain
8:53 AM 69.1 °F - 66.9 °F 93% 29.91 in 1.5 mi Calm Calm - 0.12 in Rain Light Rain
9:05 AM 69.8 °F - 68.0 °F 94% 29.89 in 2.5 mi Calm Calm - 0.00 in   Overcast
9:19 AM 71.6 °F - 68.0 °F 88% 29.89 in 3.0 mi Calm Calm - 0.00 in   Overcast
9:43 AM 73.4 °F - 69.8 °F 88% 29.90 in 4.0 mi Variable 3.5 mph - 0.00 in   Mostly Cloudy
9:53 AM 73.9 °F - 68.0 °F 82% 29.90 in 5.0 mi Variable 3.5 mph - 0.00 in   Haze
10:53 AM 75.9 °F - 68.0 °F 76% 29.89 in 9.0 mi West 4.6 mph - N/A   Partly Cloudy
11:13 AM 75.2 °F - 66.2 °F 73% 29.88 in 9.0 mi WSW 5.8 mph - N/A   Mostly Cloudy
11:53 AM 77.0 °F - 66.9 °F 71% 29.88 in 9.0 mi West 5.8 mph - N/A   Overcast
12:04 PM 77.0 °F - 66.2 °F 69% 29.87 in 10.0 mi West 9.2 mph - N/A   Overcast
12:53 PM 78.1 °F - 66.0 °F 66% 29.88 in 10.0 mi West 9.2 mph 16.1 mph N/A   Overcast
1:15 PM 78.8 °F - 66.2 °F 65% 29.87 in 10.0 mi West 6.9 mph - N/A   Overcast
1:23 PM 80.6 °F 83.2 °F 68.0 °F 65% 29.86 in 10.0 mi West 10.4 mph - N/A   Mostly Cloudy
1:53 PM 81.0 °F 83.0 °F 66.0 °F 60% 29.86 in 10.0 mi WNW 9.2 mph - N/A   Scattered Clouds
2:53 PM 82.0 °F 83.8 °F 64.9 °F 56% 29.84 in 10.0 mi West 6.9 mph - N/A   Partly Cloudy
3:53 PM 82.9 °F 84.6 °F 64.9 °F 54% 29.82 in 10.0 mi Variable 4.6 mph - N/A   Partly Cloudy
4:53 PM 82.0 °F 83.8 °F 64.9 °F 56% 29.81 in 10.0 mi West 5.8 mph - N/A   Scattered Clouds
5:53 PM 82.9 °F 85.0 °F 66.0 °F 56% 29.80 in 10.0 mi Variable 5.8 mph - N/A   Mostly Cloudy
6:53 PM 82.0 °F 84.5 °F 66.9 °F 60% 29.79 in 10.0 mi Calm Calm - N/A   Clear
7:53 PM 75.9 °F - 70.0 °F 82% 29.80 in 10.0 mi Calm Calm - N/A   Clear
8:33 PM 75.2 °F - 69.8 °F 83% 29.79 in 10.0 mi Calm Calm - N/A Thunderstorm Clear
8:48 PM 73.4 °F - 69.8 °F 88% 29.78 in 10.0 mi Calm Calm - N/A   Scattered Clouds
8:53 PM 75.0 °F - 69.1 °F 82% 29.80 in 10.0 mi Calm Calm - N/A   Scattered Clouds
9:53 PM 75.9 °F - 66.9 °F 74% 29.80 in 10.0 mi Calm Calm - 0.00 in   Clear
10:53 PM 70.0 °F - 64.0 °F 81% 29.81 in 10.0 mi Calm Calm - 0.02 in   Partly Cloudy
11:53 PM 69.1 °F - 63.0 °F 81% 29.81 in 10.0 mi West 5.8 mph - N/A   Mostly Cloudy